Location: Casilda
(33.0440°S, 61.1680°W)
Time: 08:22:48
(UTC-03:00)

ISS - Pass Details

Date: 21 September 2021
Orbit: 417 x 422 km, 51.6° (Epoch: 28 September)

Event Time Altitude Azimuth Distance (km) Brightness Sun altitude
Exits shadow 04:57:02 10° 37° (NE) 1,495 -0.8 -25.3°
Maximum altitude 04:58:02 11° 55° (NE) 1,438 -0.6 -25.1°
Drops below altitude 10° 04:59:12 10° 75° (ENE) 1,524 -0.2 -24.8°
Sets 05:02:33 0° 110° (ESE) 2,400 1.5 -24.2°
